Date String (YYYY-MM-DD hh:mm:ss) UTC,Instrument flags,absolute air pressure of the measurement (hPa),sample flow rate (lpm),inlet stack bypass flow (lpm),air temperature of the measurement (°C),ambient temperature measured by the external sensor (°C),aerosol sample conditioner tube jacket temperature (°C),OPC LED temperature (°C),internal box temperature (°C),relative humidity of the measurement (%),span deviation,mass concentration of particles derived from Lorenz-Mie calculation of OPC scattering (μg/m³),mass concentration of particles derived from Lorenz-Mie calculation of OPC scattering (μg/m³),mass concentration of particles derived from Lorenz-Mie calculation of OPC scattering (μg/m³)
DateTimeUTC,F1_M11,P_M11,Q1_M11,Q2_M11,T1_M11,T2_M11,T3_M11,T4_M11,T5_M11,U1_M11,ZSPAN_M11,X0_M11,X2_M11,X1_M11
2023-11-25 21:00:00,SystemResetWarning,0827.5,4.99,000.00,018.9,018.1,000.0,027.2,020.1,12.4,0001.0,0008.70,0006.69,0006.47
2023-11-25 21:01:00,SystemResetWarning,0827.5,5.00,000.00,018.9,018.0,000.0,027.2,020.0,12.5,0001.0,0008.79,0006.72,0006.47
2023-11-25 21:02:00,SystemResetWarning,0827.6,5.00,000.00,018.8,018.0,000.0,027.2,020.0,12.5,0001.3,0008.82,0006.73,0006.47
2023-11-25 21:03:00,SystemResetWarning,0827.6,5.01,000.00,018.8,018.0,000.0,027.2,020.0,12.5,0001.5,0008.80,0006.73,0006.48
2023-11-25 21:04:00,SystemResetWarning,0827.6,5.00,000.00,018.8,018.0,000.0,027.2,020.0,12.4,0001.8,0008.82,0006.74,0006.48
2023-11-25 21:05:00,SystemResetWarning,0827.6,5.01,000.00,018.8,017.9,000.0,027.2,020.0,12.4,0001.4,0008.82,0006.77,0006.50
2023-11-25 21:06:00,SystemResetWarning,0827.5,4.99,000.00,018.8,017.9,000.0,027.2,020.0,12.4,0000.7,0008.82,0006.78,0006.51
2023-11-25 21:07:00,SystemResetWarning,0827.6,4.98,000.00,018.8,017.9,000.0,027.2,020.0,12.4,0000.5,0008.90,0006.80,0006.53
2023-11-25 21:08:00,SystemResetWarning,0827.5,5.00,000.00,018.8,017.9,000.0,027.2,020.0,12.4,0000.7,0009.03,0006.87,0006.57
2023-11-25 21:09:00,SystemResetWarning,0827.5,5.01,000.00,018.8,017.8,000.0,027.2,020.0,12.4,0000.3,0009.10,0006.93,0006.61
2023-11-25 21:10:00,SystemResetWarning,0827.5,5.01,000.00,018.8,017.8,000.0,027.2,020.0,12.4,0000.7,0009.25,0006.95,0006.65
2023-11-25 21:11:00,SystemResetWarning,0827.6,5.00,000.00,018.8,017.8,000.0,027.2,020.0,12.5,0000.5,0009.39,0006.97,0006.66
2023-11-25 21:12:00,SystemResetWarning,0827.7,5.00,000.00,018.8,017.8,000.0,027.2,020.0,12.5,0000.4,0009.38,0006.98,0006.68
2023-11-25 21:13:00,SystemResetWarning,0827.5,5.00,000.00,018.8,017.8,000.0,027.2,020.0,12.5,0000.3,0009.42,0007.02,0006.73
2023-11-25 21:14:00,SystemResetWarning,0827.6,5.00,000.00,018.8,017.8,000.0,027.2,020.0,12.5,-000.1,0009.45,0007.04,0006.74
2023-11-25 21:15:00,SystemResetWarning,0827.5,5.00,000.00,018.8,017.7,000.0,027.2,020.0,12.5,-000.1,0009.47,0007.06,0006.77
2023-11-25 21:16:00,SystemResetWarning,0827.4,5.00,000.00,018.8,017.7,000.0,027.2,020.0,12.5,-000.1,0009.46,0007.05,0006.77
2023-11-25 21:17:00,SystemResetWarning,0827.5,5.00,000.00,018.8,017.7,000.0,027.2,020.0,12.5,0000.5,0009.44,0007.06,0006.78
2023-11-25 21:18:00,SystemResetWarning,0827.4,4.99,000.00,018.8,017.7,000.0,027.2,020.0,12.5,0000.6,0009.39,0007.07,0006.79
2023-11-25 21:19:00,SystemResetWarning,0827.5,5.00,000.00,018.8,017.7,000.0,027.2,020.0,12.5,0000.6,0009.34,0007.05,0006.78
2023-11-25 21:20:00,SystemResetWarning,0827.5,5.00,000.00,018.8,017.7,000.0,027.2,020.0,12.6,0000.9,0009.31,0007.03,0006.77
2023-11-25 21:21:00,SystemResetWarning,0827.7,5.01,000.00,018.8,017.7,000.0,027.2,020.0,12.6,0001.0,0009.18,0007.03,0006.75
2023-11-25 21:22:00,SystemResetWarning,0827.6,5.01,000.00,018.8,017.7,000.0,027.2,020.0,12.6,0001.0,0009.20,0007.03,0006.74
2023-11-25 21:23:00,SystemResetWarning,0827.4,5.01,000.00,018.8,017.7,000.0,027.2,020.0,12.7,0001.1,0009.71,0007.07,0006.75
2023-11-25 21:24:00,SystemResetWarning,0827.4,4.99,000.00,018.8,017.7,000.0,027.2,020.0,12.7,0000.7,0009.74,0007.08,0006.75
2023-11-25 21:25:00,SystemResetWarning,0827.4,5.00,000.00,018.8,017.7,000.0,027.2,020.0,12.7,0000.7,0009.79,0007.09,0006.75
2023-11-25 21:26:00,SystemResetWarning,0827.4,4.99,000.00,018.8,017.6,000.0,027.2,020.0,12.7,0000.4,0009.77,0007.08,0006.74
2023-11-25 21:27:00,SystemResetWarning,0827.4,4.99,000.00,018.8,017.6,000.0,027.2,020.0,12.7,0000.6,0009.89,0007.12,0006.74
2023-11-25 21:28:00,SystemResetWarning,0827.4,5.00,000.00,018.8,017.6,000.0,027.2,020.0,12.7,0000.9,0010.04,0007.15,0006.73
2023-11-25 21:29:00,SystemResetWarning,0827.4,5.00,000.00,018.8,017.6,000.0,027.2,020.0,12.7,0001.1,0010.56,0007.16,0006.73
2023-11-25 21:30:00,SystemResetWarning,0827.4,5.00,000.00,018.8,017.6,000.0,027.2,020.0,12.7,0001.1,0010.60,0007.16,0006.72
2023-11-25 21:31:00,SystemResetWarning,0827.4,5.00,000.00,018.8,017.6,000.0,027.2,020.0,12.7,0001.0,0010.62,0007.17,0006.73
2023-11-25 21:32:00,SystemResetWarning,0827.4,5.00,000.00,018.8,017.6,000.0,027.2,020.0,12.8,0001.1,0010.64,0007.17,0006.72
2023-11-25 21:33:00,SystemResetWarning,0827.4,5.00,000.00,018.8,017.6,000.0,027.2,020.0,12.8,0001.1,0010.55,0007.16,0006.72
2023-11-25 21:34:00,SystemResetWarning,0827.4,4.99,000.00,018.8,017.6,000.0,027.2,020.0,12.8,0001.2,0009.96,0007.11,0006.72
2023-11-25 21:35:00,SystemResetWarning,0827.4,4.99,000.00,018.7,017.6,000.0,027.2,020.0,12.7,0001.9,0009.90,0007.08,0006.70
2023-11-25 21:36:00,SystemResetWarning,0827.4,4.99,000.00,018.7,017.6,000.0,027.2,020.0,12.6,0002.2,0009.85,0007.08,0006.69
2023-11-25 21:37:00,SystemResetWarning,0827.4,5.00,000.00,018.7,017.6,000.0,027.2,020.0,12.7,0002.6,0009.85,0007.08,0006.69
2023-11-25 21:38:00,SystemResetWarning,0827.4,5.00,000.00,018.7,017.6,000.0,027.2,020.0,12.7,0002.7,0009.83,0007.08,0006.69
2023-11-25 21:39:00,SystemResetWarning,0827.4,5.01,000.00,018.7,017.6,000.0,027.2,020.0,12.6,0002.4,0009.72,0007.05,0006.69
2023-11-25 21:40:00,SystemResetWarning,0827.4,5.00,000.00,018.8,017.6,000.0,027.2,020.0,12.7,0002.1,0009.21,0007.03,0006.68
2023-11-25 21:41:00,SystemResetWarning,0827.4,5.00,000.00,018.7,017.6,000.0,027.2,020.0,12.8,0002.3,0009.19,0007.04,0006.69
2023-11-25 21:42:00,SystemResetWarning,0827.5,5.00,000.00,018.7,017.6,000.0,027.2,020.0,12.7,0002.4,0009.29,0007.04,0006.69
2023-11-25 21:43:00,SystemResetWarning,0827.5,5.00,000.00,018.7,017.6,000.0,027.2,020.0,12.7,0002.2,0009.32,0007.05,0006.70
2023-11-25 21:44:00,SystemResetWarning,0827.6,4.99,000.00,018.7,017.6,000.0,027.2,020.0,12.8,0002.3,0009.41,0007.07,0006.69
2023-11-25 21:45:00,SystemResetWarning,0827.6,5.00,000.00,018.7,017.6,000.0,027.2,020.0,12.9,0002.3,0009.42,0007.07,0006.69
2023-11-25 21:46:00,SystemResetWarning,0827.6,5.00,000.00,018.7,017.6,000.0,027.2,020.0,12.8,0001.7,0009.44,0007.10,0006.69
2023-11-25 21:47:00,SystemResetWarning,0827.6,5.00,000.00,018.7,017.6,000.0,027.2,020.0,12.7,0001.9,0009.44,0007.08,0006.68
2023-11-25 21:48:00,SystemResetWarning,0827.6,5.00,000.00,018.7,017.6,000.0,027.2,020.0,12.7,0001.7,0009.44,0007.07,0006.67
2023-11-25 21:49:00,SystemResetWarning,0827.6,5.00,000.00,018.7,017.7,000.0,027.2,020.0,12.7,0001.6,0009.34,0007.03,0006.66
2023-11-25 21:50:00,SystemResetWarning,0827.6,5.00,000.00,018.7,017.7,000.0,027.2,020.0,12.7,0000.7,0009.31,0007.02,0006.66
2023-11-25 21:51:00,SystemResetWarning,0827.7,5.00,000.00,018.8,017.7,000.0,027.2,020.0,12.8,0000.8,0009.27,0007.02,0006.67
2023-11-25 21:52:00,SystemResetWarning,0827.7,5.00,000.00,018.8,017.7,000.0,027.2,020.0,12.8,0000.9,0009.33,0007.03,0006.67
2023-11-25 21:53:00,SystemResetWarning,0827.7,5.00,000.00,018.8,017.7,000.0,027.1,020.0,12.8,0001.2,0009.29,0007.02,0006.66
2023-11-25 21:54:00,SystemResetWarning,0827.7,5.00,000.00,018.8,017.7,000.0,027.1,020.0,12.8,0001.4,0009.19,0006.99,0006.65
2023-11-25 21:55:00,SystemResetWarning,0827.7,5.00,000.00,018.8,017.7,000.0,027.1,020.0,12.7,0001.4,0009.15,0006.98,0006.65
2023-11-25 21:56:00,SystemResetWarning,0827.7,5.00,000.00,018.8,017.7,000.0,027.1,020.0,12.7,0001.2,0009.17,0006.99,0006.66
2023-11-25 21:57:00,SystemResetWarning,0827.7,5.00,000.00,018.7,017.7,000.0,027.1,020.0,12.7,0001.8,0009.16,0006.99,0006.66
2023-11-25 21:58:00,SystemResetWarning,0827.7,5.00,000.00,018.8,017.7,000.0,027.1,020.0,12.7,0002.2,0009.08,0006.97,0006.66
2023-11-25 21:59:00,SystemResetWarning,0827.7,5.00,000.00,018.8,017.8,000.0,027.1,020.0,12.6,0002.7,0009.03,0006.95,0006.67
